Weather in Asaka

Uzbekistan     40°38′32″N   72°14′48″E
temp.,
°C
wind,
m/s
gust,
m/s
humid.,
%
clouds,
%
prec.,
mm/h
press.,
hPa
HPBL,
m
13 may, thu
thu1323:00+20ese4843100 0.1 1013368
02:00+19ene3542100 0.1 1012217
05:00+18ene35424 0.1 1012175
08:00+21ene23315 0.0 1012422
11:00+27ne23213 0.0 10111241
14:00+30nnw22130 0.0 10092721
17:00+30nw12100 0.0 10082858
20:00+27wsw11126 0.0 100933
14 may, fri
fri1423:00+24e232046 0.0 101088
02:00+21e23271 0.0 1011101
05:00+19ese23280 0.0 101192
08:00+23sse12260 0.0 1012503
11:00+28w12200 0.0 10111112
14:00+31wnw22130 0.0 10092668
17:00+31w12120 0.0 10072995
20:00+28s11160 0.0 100851
15 may, sat
sat1523:00+24sw14270 0.0 1009221
02:00+22ese12314 0.0 100992
05:00+21e12320 0.0 100975
08:00+24sw22300 0.0 1011623
11:00+28wsw22230 0.0 10091370
14:00+32wsw22160 0.0 10072400
17:00+32wsw22140 0.0 10062922
20:00+29sse121769 0.0 100780
16 may, sun
sun1623:00+25s1426100 0.0 1008216
02:00+22se123263 0.0 1008146
05:00+21e12320 0.0 100971
08:00+25e11260 0.0 1010435
11:00+30w22170 0.0 10101241
14:00+33wnw12120 0.0 10072627
17:00+33sw241099 0.0 10073557
20:00+28w4723100 0.0 1008417
17 may, mon
mon1723:00+26sw1226100 0.0 1009160
02:00+23e242997 0.0 1009134
05:00+21ene23293 0.0 1010112
08:00+25ene22230 0.0 1011391
11:00+31nne11170 0.0 1010996
14:00+34nw13120 0.0 10072616
17:00+34wsw131033 0.0 10063082
20:00+31ese221330 0.0 100660